UAL154 PTPN-PTKK

Flight info

Callsign UAL154
Flight time 1h 6m
Altitude 32000
Route BIRUQ R584 MICNO
Aircraft B38M/M-SDE1FGHILORVWXY/HB1

Departure

Time 2026-05-05 01:05
Airport Pohnpei International Airport (PTPN)

Arrival

Time 2026-05-05 02:11
Airport Chuuk International Airport (PTKK)
Time Latitude Longitude Altitude Speed Heading
2026-05-05 00:45 6.98219 158.20302 20 ft 0 kts 269°
2026-05-05 01:00 6.98219 158.20305 20 ft 3 kts 269°
2026-05-05 01:01 6.98219 158.20306 20 ft 1 kts 269°
2026-05-05 01:01 6.98219 158.20303 20 ft 1 kts 269°
2026-05-05 01:01 6.98219 158.20312 20 ft 4 kts 256°
2026-05-05 01:01 6.98225 158.20327 22 ft 5 kts 225°
2026-05-05 01:02 6.98229 158.20332 25 ft 4 kts 192°
2026-05-05 01:02 6.98196 158.20353 20 ft 1 kts 94°
2026-05-05 01:02 6.98212 158.20362 20 ft 6 kts 358°
2026-05-05 01:02 6.98261 158.20345 22 ft 11 kts 12°
2026-05-05 01:03 6.98371 158.20358 20 ft 21 kts 359°
2026-05-05 01:03 6.98504 158.20337 20 ft 18 kts 306°
2026-05-05 01:03 6.98504 158.20190 20 ft 21 kts 252°
2026-05-05 01:03 6.98503 158.20098 21 ft 8 kts
2026-05-05 01:04 6.98516 158.20128 22 ft 9 kts 85°
2026-05-05 01:04 6.98512 158.20931 20 ft 132 kts 90°
2026-05-05 01:04 6.98502 158.22064 217 ft 180 kts 90°
2026-05-05 01:05 6.98501 158.23314 1205 ft 173 kts 80°
2026-05-05 01:05 6.98952 158.24356 2230 ft 166 kts 45°
2026-05-05 01:05 7.00083 158.24909 2614 ft 199 kts 10°
2026-05-05 01:05 7.01505 158.25033 3377 ft 213 kts
2026-05-05 01:06 7.03028 158.25114 4181 ft 228 kts
2026-05-05 01:06 7.04684 158.25033 4870 ft 253 kts 346°
2026-05-05 01:06 7.06216 158.24015 5561 ft 280 kts 311°
2026-05-05 01:06 7.06963 158.22174 6647 ft 289 kts 278°
2026-05-05 01:07 7.06926 158.20145 7500 ft 298 kts 271°
2026-05-05 01:07 7.06964 158.18063 8511 ft 299 kts 274°
2026-05-05 01:07 7.07056 158.15930 9430 ft 305 kts 274°
2026-05-05 01:07 7.07173 158.13793 10236 ft 314 kts 275°
2026-05-05 01:08 7.07318 158.11538 10674 ft 333 kts 275°
2026-05-05 01:08 7.07488 158.09190 10773 ft 341 kts 275°
2026-05-05 01:08 7.07660 158.06792 10834 ft 344 kts 275°
2026-05-05 01:08 7.07827 158.04385 10864 ft 345 kts 275°
2026-05-05 01:09 7.07990 158.01976 10871 ft 345 kts 275°
2026-05-05 01:09 7.08152 157.99565 10897 ft 345 kts 275°
2026-05-05 01:09 7.08311 157.97152 10879 ft 345 kts 275°
2026-05-05 01:09 7.08473 157.94743 10885 ft 345 kts 275°
2026-05-05 01:10 7.08636 157.92326 10933 ft 348 kts 275°
2026-05-05 01:10 7.08802 157.89906 11707 ft 346 kts 275°
2026-05-05 01:10 7.08960 157.87482 12508 ft 350 kts 275°
2026-05-05 01:10 7.09123 157.85024 13274 ft 353 kts 275°
2026-05-05 01:11 7.09290 157.82547 13997 ft 357 kts 275°
2026-05-05 01:11 7.09458 157.80047 14669 ft 359 kts 275°
2026-05-05 01:11 7.09626 157.77532 15335 ft 362 kts 275°
2026-05-05 01:11 7.09795 157.74997 15981 ft 364 kts 275°
2026-05-05 01:12 7.09965 157.72438 16624 ft 367 kts 275°
2026-05-05 01:12 7.10108 157.70291 17140 ft 370 kts 275°
2026-05-05 01:12 7.10281 157.67698 17746 ft 373 kts 275°
2026-05-05 01:12 7.10455 157.65085 18310 ft 376 kts 275°
2026-05-05 01:13 7.10630 157.62451 18804 ft 379 kts 275°
2026-05-05 01:13 7.10806 157.59798 19294 ft 381 kts 275°
2026-05-05 01:13 7.10984 157.57124 19786 ft 384 kts 274°
2026-05-05 01:13 7.11162 157.54433 20261 ft 387 kts 274°
2026-05-05 01:14 7.11344 157.51691 20742 ft 389 kts 274°
2026-05-05 01:14 7.11525 157.48958 21223 ft 392 kts 274°
2026-05-05 01:14 7.11706 157.46213 21685 ft 394 kts 274°
2026-05-05 01:14 7.11890 157.43447 22148 ft 397 kts 274°
2026-05-05 01:15 7.12073 157.40667 22609 ft 399 kts 274°
2026-05-05 01:15 7.12257 157.37872 23065 ft 402 kts 274°
2026-05-05 01:15 7.12443 157.35054 23500 ft 404 kts 274°
2026-05-05 01:15 7.12630 157.32220 23870 ft 406 kts 274°
2026-05-05 01:16 7.12817 157.29377 24238 ft 408 kts 274°
2026-05-05 01:16 7.13005 157.26516 24600 ft 411 kts 274°
2026-05-05 01:16 7.13193 157.23640 24967 ft 413 kts 274°
2026-05-05 01:16 7.13381 157.20753 25322 ft 415 kts 274°
2026-05-05 01:17 7.13572 157.17843 25672 ft 417 kts 273°
2026-05-05 01:17 7.13763 157.14927 26017 ft 419 kts 273°
2026-05-05 01:17 7.13954 157.11989 26363 ft 421 kts 273°
2026-05-05 01:17 7.14147 157.09039 26705 ft 424 kts 273°
2026-05-05 01:18 7.14340 157.06068 27042 ft 426 kts 273°
2026-05-05 01:18 7.14534 157.03085 27376 ft 428 kts 273°
2026-05-05 01:18 7.14729 157.00090 27698 ft 430 kts 273°
2026-05-05 01:18 7.14926 156.97073 28024 ft 433 kts 273°
2026-05-05 01:19 7.15122 156.94044 28337 ft 435 kts 273°
2026-05-05 01:19 7.15319 156.91001 28645 ft 437 kts 273°
2026-05-05 01:19 7.15516 156.87938 28956 ft 439 kts 273°
2026-05-05 01:19 7.15715 156.84860 29254 ft 442 kts 273°
2026-05-05 01:20 7.15915 156.81767 29541 ft 444 kts 273°
2026-05-05 01:20 7.16116 156.78655 29836 ft 446 kts 273°
2026-05-05 01:20 7.16317 156.75532 30092 ft 448 kts 273°
2026-05-05 01:20 7.16520 156.72396 30318 ft 451 kts 273°
2026-05-05 01:21 7.16722 156.69237 30562 ft 452 kts 273°
2026-05-05 01:21 7.16925 156.66073 30787 ft 454 kts 273°
2026-05-05 01:21 7.17131 156.62848 31029 ft 456 kts 273°
2026-05-05 01:21 7.17337 156.59651 31251 ft 459 kts 273°
2026-05-05 01:22 7.17543 156.56437 31476 ft 460 kts 273°
2026-05-05 01:22 7.17746 156.53259 31702 ft 462 kts 273°
2026-05-05 01:22 7.17952 156.50025 31871 ft 464 kts 273°
2026-05-05 01:22 7.18159 156.46783 31897 ft 463 kts 273°
2026-05-05 01:23 7.18566 156.40329 31891 ft 461 kts 273°
2026-05-05 01:23 7.18975 156.33877 31893 ft 461 kts 273°
2026-05-05 01:24 7.19316 156.28474 31889 ft 461 kts 273°
2026-05-05 01:24 7.19721 156.22031 31891 ft 461 kts 273°
2026-05-05 01:25 7.20126 156.15584 31894 ft 461 kts 273°
2026-05-05 01:25 7.20531 156.09148 31893 ft 461 kts 273°
2026-05-05 01:26 7.20933 156.02709 31895 ft 461 kts 273°
2026-05-05 01:26 7.21336 155.96264 31896 ft 461 kts 273°
2026-05-05 01:27 7.21736 155.89831 31892 ft 460 kts 273°
2026-05-05 01:27 7.22136 155.83400 31892 ft 460 kts 273°
2026-05-05 01:28 7.22535 155.76970 31892 ft 460 kts 273°
2026-05-05 01:28 7.22931 155.70556 31892 ft 459 kts 273°
2026-05-05 01:29 7.23328 155.64132 31893 ft 459 kts 273°
2026-05-05 01:29 7.23723 155.57718 31891 ft 459 kts 273°
2026-05-05 01:30 7.24116 155.51311 31889 ft 458 kts 273°
2026-05-05 01:30 7.24509 155.44907 31892 ft 458 kts 273°
2026-05-05 01:31 7.24900 155.38505 31891 ft 458 kts 273°
2026-05-05 01:31 7.25290 155.32113 31891 ft 457 kts 273°
2026-05-05 01:32 7.25680 155.25720 31889 ft 457 kts 273°
2026-05-05 01:32 7.26068 155.19329 31888 ft 457 kts 273°
2026-05-05 01:33 7.26456 155.12930 31889 ft 458 kts 273°
2026-05-05 01:33 7.26843 155.06535 31890 ft 458 kts 273°
2026-05-05 01:34 7.27229 155.00137 31886 ft 458 kts 273°
2026-05-05 01:34 7.27615 154.93729 31889 ft 458 kts 273°
2026-05-05 01:35 7.27998 154.87332 31886 ft 457 kts 273°
2026-05-05 01:35 7.28381 154.80938 31885 ft 457 kts 273°
2026-05-05 01:36 7.28764 154.74544 31887 ft 457 kts 273°
2026-05-05 01:36 7.29144 154.68157 31887 ft 457 kts 273°
2026-05-05 01:37 7.29525 154.61763 31888 ft 457 kts 273°
2026-05-05 01:37 7.29903 154.55379 31887 ft 457 kts 273°
2026-05-05 01:38 7.30281 154.48998 31887 ft 456 kts 273°
2026-05-05 01:38 7.30658 154.42616 31887 ft 456 kts 273°
2026-05-05 01:39 7.31033 154.36241 31886 ft 456 kts 273°
2026-05-05 01:39 7.31408 154.29867 31888 ft 456 kts 273°
2026-05-05 01:40 7.31782 154.23497 31886 ft 456 kts 273°
2026-05-05 01:40 7.32154 154.17128 31887 ft 456 kts 273°
2026-05-05 01:41 7.32526 154.10758 31886 ft 455 kts 273°
2026-05-05 01:41 7.32897 154.04386 31886 ft 455 kts 273°
2026-05-05 01:42 7.33266 153.98023 31886 ft 455 kts 273°
2026-05-05 01:42 7.33635 153.91654 31883 ft 455 kts 273°
2026-05-05 01:43 7.34003 153.85287 31885 ft 455 kts 273°
2026-05-05 01:43 7.34370 153.78923 31886 ft 455 kts 273°
2026-05-05 01:44 7.34724 153.72672 31522 ft 438 kts 273°
2026-05-05 01:44 7.34900 153.69609 30996 ft 437 kts 273°
2026-05-05 01:44 7.35076 153.66556 30456 ft 437 kts 273°
2026-05-05 01:45 7.35251 153.63510 29959 ft 435 kts 273°
2026-05-05 01:45 7.35425 153.60471 29401 ft 433 kts 273°
2026-05-05 01:45 7.35597 153.57453 28901 ft 430 kts 272°
2026-05-05 01:45 7.35768 153.54462 28438 ft 426 kts 272°
2026-05-05 01:46 7.35937 153.51497 28087 ft 420 kts 272°
2026-05-05 01:46 7.36098 153.48609 28006 ft 407 kts 272°
2026-05-05 01:46 7.36256 153.45786 27664 ft 402 kts 272°
2026-05-05 01:46 7.36415 153.42980 27218 ft 400 kts 272°
2026-05-05 01:47 7.36574 153.40184 26787 ft 399 kts 272°
2026-05-05 01:47 7.36734 153.37364 26354 ft 397 kts 272°
2026-05-05 01:47 7.36891 153.34599 25937 ft 395 kts 272°
2026-05-05 01:47 7.37048 153.31840 25521 ft 393 kts 272°
2026-05-05 01:48 7.37203 153.29093 25108 ft 392 kts 272°
2026-05-05 01:48 7.37357 153.26359 24702 ft 391 kts 271°
2026-05-05 01:48 7.37512 153.23627 24299 ft 390 kts 272°
2026-05-05 01:48 7.37665 153.20901 23894 ft 389 kts 271°
2026-05-05 01:49 7.37819 153.18188 23499 ft 388 kts 272°
2026-05-05 01:49 7.37972 153.15475 23026 ft 387 kts 271°
2026-05-05 01:49 7.38124 153.12769 22604 ft 385 kts 271°
2026-05-05 01:49 7.38274 153.10087 22208 ft 383 kts 271°
2026-05-05 01:50 7.38424 153.07416 21818 ft 380 kts 271°
2026-05-05 01:50 7.38572 153.04768 21428 ft 378 kts 271°
2026-05-05 01:50 7.38720 153.02128 21040 ft 376 kts 271°
2026-05-05 01:50 7.38866 152.99511 20655 ft 374 kts 271°
2026-05-05 01:51 7.39012 152.96901 20277 ft 372 kts 271°
2026-05-05 01:51 7.39156 152.94311 19895 ft 370 kts 271°
2026-05-05 01:51 7.39300 152.91725 19516 ft 368 kts 271°
2026-05-05 01:51 7.39445 152.89120 19132 ft 367 kts 271°
2026-05-05 01:52 7.39588 152.86558 18759 ft 366 kts 271°
2026-05-05 01:52 7.39730 152.84003 18380 ft 365 kts 271°
2026-05-05 01:52 7.39871 152.81458 17980 ft 364 kts 271°
2026-05-05 01:52 7.40012 152.78920 17569 ft 362 kts 271°
2026-05-05 01:53 7.40152 152.76393 17180 ft 360 kts 271°
2026-05-05 01:53 7.40291 152.73881 16809 ft 357 kts 271°
2026-05-05 01:53 7.40429 152.71392 16440 ft 355 kts 271°
2026-05-05 01:53 7.40565 152.68926 16077 ft 353 kts 271°
2026-05-05 01:54 7.40701 152.66453 15710 ft 351 kts 271°
2026-05-05 01:54 7.40836 152.64007 15345 ft 349 kts 271°
2026-05-05 01:54 7.40970 152.61576 14985 ft 347 kts 271°
2026-05-05 01:54 7.41103 152.59160 14624 ft 345 kts 271°
2026-05-05 01:55 7.41235 152.56745 14264 ft 344 kts 271°
2026-05-05 01:55 7.41367 152.54347 13909 ft 343 kts 271°
2026-05-05 01:55 7.41498 152.51955 13531 ft 341 kts 271°
2026-05-05 01:55 7.41629 152.49573 13134 ft 340 kts 271°
2026-05-05 01:56 7.41759 152.47202 12767 ft 338 kts 271°
2026-05-05 01:56 7.41888 152.44844 12407 ft 336 kts 271°
2026-05-05 01:56 7.42016 152.42500 12059 ft 334 kts 271°
2026-05-05 01:56 7.42143 152.40177 11704 ft 332 kts 271°
2026-05-05 01:57 7.42269 152.37864 11356 ft 330 kts 271°
2026-05-05 01:57 7.42393 152.35592 11029 ft 318 kts 271°
2026-05-05 01:57 7.42357 152.33419 10667 ft 305 kts 260°
2026-05-05 01:57 7.42055 152.31346 10331 ft 294 kts 259°
2026-05-05 01:58 7.41770 152.29345 10117 ft 280 kts 259°
2026-05-05 01:58 7.41506 152.27458 9985 ft 264 kts 259°
2026-05-05 01:58 7.41259 152.25677 9821 ft 251 kts 259°
2026-05-05 01:58 7.41022 152.23963 9538 ft 243 kts 259°
2026-05-05 01:59 7.40795 152.22305 9246 ft 235 kts 259°
2026-05-05 01:59 7.40575 152.20706 8974 ft 226 kts 259°
2026-05-05 01:59 7.40362 152.19159 8723 ft 221 kts 259°
2026-05-05 01:59 7.40150 152.17614 8501 ft 225 kts 259°
2026-05-05 02:00 7.39934 152.16044 8267 ft 227 kts 259°
2026-05-05 02:00 7.39788 152.14978 8096 ft 227 kts 259°
2026-05-05 02:00 7.39571 152.13406 7843 ft 226 kts 259°
2026-05-05 02:00 7.39356 152.11840 7596 ft 226 kts 259°
2026-05-05 02:01 7.39142 152.10298 7393 ft 225 kts 259°
2026-05-05 02:01 7.38923 152.08708 7156 ft 226 kts 259°
2026-05-05 02:01 7.38707 152.07137 6853 ft 226 kts 259°
2026-05-05 02:01 7.38493 152.05577 6576 ft 223 kts 259°
2026-05-05 02:02 7.38283 152.04044 6326 ft 219 kts 259°
2026-05-05 02:02 7.38074 152.02529 6113 ft 220 kts 259°
2026-05-05 02:02 7.37861 152.00989 5857 ft 224 kts 259°
2026-05-05 02:02 7.37649 151.99437 5539 ft 222 kts 259°
2026-05-05 02:03 7.37440 151.97917 5251 ft 215 kts 259°
2026-05-05 02:03 7.37237 151.96445 5041 ft 212 kts 259°
2026-05-05 02:03 7.37029 151.94949 4904 ft 218 kts 258°
2026-05-05 02:03 7.36821 151.93441 4775 ft 222 kts 260°
2026-05-05 02:04 7.36603 151.91859 4500 ft 229 kts 259°
2026-05-05 02:04 7.36382 151.90259 4153 ft 232 kts 259°
2026-05-05 02:04 7.36163 151.88674 3902 ft 225 kts 259°
2026-05-05 02:04 7.35956 151.87165 3808 ft 210 kts 259°
2026-05-05 02:05 7.35759 151.85737 3717 ft 197 kts 259°
2026-05-05 02:05 7.35572 151.84383 3626 ft 194 kts 259°
2026-05-05 02:05 7.35387 151.83035 3529 ft 194 kts 258°
2026-05-05 02:05 7.35202 151.81695 3470 ft 194 kts 258°
2026-05-05 02:06 7.35016 151.80353 3352 ft 193 kts 258°
2026-05-05 02:06 7.34831 151.79016 3228 ft 192 kts 258°
2026-05-05 02:06 7.34647 151.77682 3100 ft 192 kts 258°
2026-05-05 02:06 7.34530 151.76342 2900 ft 195 kts 274°
2026-05-05 02:07 7.35095 151.75126 2659 ft 195 kts 316°
2026-05-05 02:07 7.36287 151.74546 2479 ft 192 kts 358°
2026-05-05 02:07 7.37392 151.74726 2334 ft 185 kts 31°
2026-05-05 02:07 7.38265 151.75557 2152 ft 162 kts 68°
2026-05-05 02:08 7.38730 151.76509 2076 ft 148 kts 61°
2026-05-05 02:08 7.39409 151.77295 1925 ft 149 kts 50°
2026-05-05 02:08 7.40137 151.78029 1686 ft 147 kts 50°
2026-05-05 02:08 7.40840 151.78754 1459 ft 142 kts 51°
2026-05-05 02:09 7.41524 151.79460 1238 ft 141 kts 51°
2026-05-05 02:09 7.42213 151.80180 1028 ft 144 kts 50°
2026-05-05 02:09 7.42933 151.80908 818 ft 149 kts 48°
2026-05-05 02:09 7.43697 151.81628 640 ft 150 kts 49°
2026-05-05 02:10 7.44395 151.82413 355 ft 151 kts 56°
2026-05-05 02:10 7.45111 151.83139 180 ft 144 kts 52°
2026-05-05 02:10 7.45773 151.83862 23 ft 134 kts 48°
2026-05-05 02:10 7.46314 151.84434 17 ft 89 kts 45°
2026-05-05 02:11 7.46644 151.84774 22 ft 40 kts 46°
2026-05-05 02:11 7.46696 151.84840 25 ft 14 kts 78°
2026-05-05 02:11 7.46741 151.84899 22 ft 12 kts
2026-05-05 02:11 7.46775 151.84865 24 ft 8 kts 248°
2026-05-05 02:12 7.46697 151.84828 23 ft 17 kts 208°
2026-05-05 02:12 7.46422 151.84552 19 ft 38 kts 226°
2026-05-05 02:12 7.46218 151.84339 19 ft 46 kts 226°
2026-05-05 02:13 7.45980 151.84095 24 ft 40 kts 227°
2026-05-05 02:13 7.45878 151.84055 26 ft 14 kts 148°
2026-05-05 02:13 7.45851 151.84082 24 ft 2 kts 121°
2026-05-05 02:13 7.45850 151.84116 24 ft 8 kts 78°
2026-05-05 02:14 7.45819 151.84150 26 ft 7 kts 198°
2026-05-05 02:14 7.45772 151.84105 24 ft 6 kts 226°
2026-05-05 02:14 7.45771 151.84104 25 ft 0 kts 226°